Capitol Logistics 105


KHSV
Huntsville International Airport
Huntsville, Alabama, US
KMIA
Miami International Airport
Miami, Florida, US

Activity Log

Date Flight Route Aircraft Duration
04/21/2020 CPX105 KHSV JYROD Q110 JAYMC KMIA B77L 1h 42m
08/24/2019 CPX241 KHSV RMG ATL YANTI Q89 PRMUS OMN HILEY7 KMIA B763 1h 48m
06/26/2019 CPX241 RMG ATL YANTI Q89 PRMUS OMN HILEY7 B763 1h 55m
05/31/2019 CPX105 RMG ATL YANTI Q89 PRMUS OMN HILEY7 B744 1h 42m
05/04/2019 CPX105 RMG SZW J41 PLYER JUULI SSCOT5 B744 1h 40m
04/10/2019 CPX241 RMG ATL YANTI Q89 PRMUS OMN HILEY7 B763 2h 16m
02/26/2019 CPX105 DCU V49 VUZ SZW J41 PIE CYY9 MD11 1h 39m
02/04/2019 CPX241 RMG ATL J45 AMG OMN MLB ANNEY4 B763 1h 42m
12/21/2018 CPX521 RMG ATL YANTI Q89 PRMUS OMN HILEY7 B763 2h 06m

Route Details

Aircraft Information
Primary: Boeing 747-400BCF
Backup: Boeing 777-200LRF
Route Data
Distance: 629nm
Sched. Duration: 1h 35m
Avg. Duration: 1h 59m (+24m)
Times Flown: 9
Recm'd Route: RMG ATL YANTI Q89 PRMUS OMN HILEY7
Planned Altitude: 37,000ft
Origin Wx: KHSV 251253Z 00000KT 10SM OVC012 14/13 A2999 RMK AO2 SLP150 T01440128 $
Dest. Wx: KMIA 251320Z VRB03G15KT 7SM -RA BKN010 BKN017 OVC037 26/25 A2991 RMK AO2 LTG DSNT SE P0001 T02560250 $
Notes:

Financial History
Total Freight: 1,135,349lbs
Average Load: 126,150lbs/flt
Fuel Used: 237,937lbs
Avg. Fuel Used: 26,437lbs/flt
Fuel Expense: $214,143
Avg. Fuel Expense: $23,794
Avg. Fuel Cost: $0.90/lbs
Total Gross Income: $1,448,743
Pilot Pay: $1,611
Total Expenses: $156,932
Total Revenue: $1,074,615
Average Revenue: $160,971.40